Terminal Aerodrome Forecast
Issued by NWS Mt. Holly, NJ

Home | Current Version | Previous Version | Text Only | Print | Product List | Glossary On
Versions: 1 2 3 4 5 6 7 8 9 10 11 12 13 14 15 16 17
000
FTUS41 KPHI 231100
TAFABE
TAF
KABE 231127Z 2312/2412 00000KT P6SM SCT025
     FM231300 23010KT P6SM SCT045
      TEMPO 2323/2402 27015G30KT 3SM TSRA BKN035CB
     FM240200 32003KT P6SM BKN050
      TEMPO 2404/2408 5SM -SHRA BR BKN030=

USA.gov is the U.S. government's official web portal to all federal, state and local government web resources and services.